User: anonymous   Login
Location: Caltech
(34.1382°N, 118.1253°W)
Time: 08:50:39
(UTC-08:00)
Language:

Gurwin Techsat 1B - Orbit

View from above orbital plane
View from above orbital plane
View from above satellite
View from above satellite

Ground track
Ground track

The orbit data is extracted from the following two-line orbital elements,

1 25397U 98043D   15057.54034329  .00000067  00000-0  48198-4 0  9995
2 25397 098.5071 011.5313 0000224 355.3023 055.0713 14.23520056864053
Epoch (UTC): 26 February 2015 12:58:05
Eccentricity: 0.0000224
inclination: 98.5071°
perigee height: 813 km
apogee height: 813 km
right ascension of ascending node: 11.5313°
argument of perigee: 355.3023°
revolutions per day: 14.23520056
mean anomaly at epoch: 55.0713°
orbit number at epoch: 86405

The dashed part of the orbit path shows where the satellite is in the earth's shadow,  

DLR